Simultaneous Nadir Overpasses (SNOs) Predictions

Prediction of SNOs between LANDSAT-8 and NPP Satellite Orbit:

Table of predicted SNOs for the next 14.0 days since TLE Epoch: 3/27/2021
Index Date (LANDSAT-8) Time (LANDSAT-8) Lat,Lon (LANDSAT-8) SZA (LANDSAT-8 ) Date (NPP) Time (NPP) Lat,Lon (NPP) SZA (NPP ) Distance(km) Time Diff (sec)
1 03/27/2021 14:41:37 70.41, -43.64 67.53 03/27/2021 14:40:26 70.46, -44.45 67.62 30.69 71
2 03/27/2021 15:31:11 -70.08, 123.51 112.81 03/27/2021 15:31:02 -70.07, 123.48 112.81 1.67 9
3 03/27/2021 16:20:39 69.92, -69.06 67.03 03/27/2021 16:21:46 69.94, -69.02 67.04 2.73 67
4 03/30/2021 06:58:09 70.16, 71.87 66.24 03/30/2021 06:57:13 70.13, 71.84 66.22 3.31 56
5 03/30/2021 07:47:39 -70.05,-120.65 113.89 03/30/2021 07:47:55 -70.05,-120.72 113.88 2.70 16
6 03/30/2021 08:37:19 69.22, 45.87 65.32 03/30/2021 08:38:26 69.23, 47.78 65.26 75.36 67
7 04/01/2021 23:14:38 70.12,-172.31 65.16 04/01/2021 23:14:07 70.12,-172.37 65.17 2.26 31
8 04/02/2021 00:04:08 -70.01, -4.83 114.96 04/02/2021 00:04:48 -69.99, -4.85 114.99 3.12 40
9 04/04/2021 14:41:34 -70.52, 136.50 115.48 04/04/2021 14:40:23 -70.55, 135.43 115.41 39.74 71
10 04/04/2021 15:31:07 70.07, -56.50 64.09 04/04/2021 15:31:00 70.06, -56.50 64.07 1.77 7
11 04/04/2021 16:20:37 -69.97, 110.99 116.03 04/04/2021 16:21:42 -69.97, 110.95 116.03 1.79 65
12 04/07/2021 06:58:09 -70.14,-108.17 116.86 04/07/2021 06:57:10 -70.17,-108.20 116.82 3.32 59
13 04/07/2021 07:47:36 70.02, 59.31 63.02 04/07/2021 07:47:54 70.05, 59.29 63.05 3.29 18
14 04/07/2021 08:37:16 -69.37,-133.94 117.62 04/07/2021 08:38:25 -69.38,-132.41 117.66 60.13 69
15 04/09/2021 23:14:37 -70.09, 7.63 117.91 04/09/2021 23:14:02 -70.11, 7.67 117.89 2.72 35
16 04/10/2021 00:04:03 70.02, 175.19 62.02 04/10/2021 00:04:46 69.99, 175.15 61.99 3.34 43



Historial Predications of SNOs between LANDSAT-8 and NPP
